EW4214 Weather Reports


Display with metric or nautical units.
time (UTC)temp
F
wind
direction
speed
MPH
gust
MPH
rain 1hr
in
rain 24hr
in
rain mn
in
humidity
%
barometer
mb
20260904232322 87 225 2.0 4.0 0.00 0.00 0.00 65 1008.0
20260904231322 87 170 1.0 5.0 0.00 0.00 0.00 65 1008.1
20260904230321 87 219 3.0 5.0 0.00 0.00 0.00 65 1008.0
20260904225321 87 224 0.0 3.0 0.00 0.00 0.00 65 1008.1
20260904224320 87 0 0.0 4.0 0.00 0.00 0.00 65 1007.9
20260904223321 87 51 0.0 3.0 0.00 0.00 0.00 65 1007.9
20260904222320 87 209 0.0 4.0 0.00 0.00 0.00 65 1007.9
20260904221319 87 226 2.0 2.0 0.00 0.00 0.00 65 1007.7
20260904220319 87 233 0.0 4.0 0.00 0.00 0.00 65 1007.6
20260904215318 87 239 2.0 4.0 0.00 0.00 0.00 64 1007.5
20260904214318 87 118 0.0 4.0 0.00 0.00 0.00 64 1007.4
20260904213317 87 242 2.0 4.0 0.00 0.00 0.00 64 1007.3
20260904212317 87 247 2.0 3.0 0.00 0.00 0.00 64 1007.2
20260904211805 87 214 0.0 4.0 0.00 0.00 0.00 64 1007.1
20260904210316 87 49 0.0 5.0 0.00 0.00 0.00 64 1007.1
20260904205316 87 197 1.0 5.0 0.00 0.00 0.00 64 1007.0
20260904204315 87 227 0.0 6.0 0.00 0.00 0.00 63 1007.0
20260904203313 87 246 1.0 4.0 0.00 0.00 0.00 63 1007.1
20260904202313 88 234 4.0 4.0 0.00 0.00 0.00 63 1007.2
20260904201312 88 239 1.0 4.0 0.00 0.00 0.00 63 1007.4
20260904200312 88 236 2.0 4.0 0.00 0.00 0.00 63 1007.3
20260904195312 88 278 0.0 4.0 0.00 0.00 0.00 64 1007.4
20260904194756 88 169 2.0 6.0 0.00 0.00 0.00 64 1007.6
20260904193315 88 181 3.0 4.0 0.00 0.00 0.00 64 1007.5
20260904192309 88 218 0.0 5.0 0.00 0.00 0.00 64 1007.6
20260904191309 88 126 0.0 4.0 0.00 0.00 0.00 64 1007.8
20260904190743 88 246 0.0 4.0 0.00 0.00 0.00 64 1007.9
20260904185308 88 268 1.0 5.0 0.00 0.00 0.00 64 1007.9
20260904184305 88 275 1.0 3.0 0.00 0.00 0.00 64 1008.0
20260904183306 89 218 2.0 3.0 0.00 0.00 0.00 64 1008.0
20260904182306 89 218 2.0 3.0 0.00 0.00 0.00 64 1008.0
20260904181306 89 162 1.0 2.0 0.00 0.00 0.00 64 1008.0
20260904180305 89 229 2.0 4.0 0.00 0.00 0.00 64 1008.1
20260904175306 89 252 3.0 5.0 0.00 0.00 0.00 64 1008.2
20260904174437 89 338 2.0 4.0 0.00 0.00 0.00 64 1008.2
20260904173953 89 296 0.0 4.0 0.00 0.00 0.00 63 1008.2
20260904172430 89 202 0.0 5.0 0.00 0.00 0.00 63 1008.2
20260904171427 89 269 1.0 6.0 0.00 0.00 0.00 63 1008.2
20260904170423 89 89 0.0 3.0 0.00 0.00 0.00 63 1008.4
20260904165419 89 20 0.0 3.0 0.00 0.00 0.00 63 1008.5
20260904164416 89 283 0.0 3.0 0.00 0.00 0.00 64 1008.6
20260904163418 89 232 0.0 4.0 0.00 0.00 0.00 64 1008.6
20260904162919 89 231 2.0 2.0 0.00 0.00 0.00 63 1008.8
20260904161407 89 188 0.0 4.0 0.00 0.00 0.00 63 1008.9
20260904160401 89 257 2.0 4.0 0.00 0.00 0.00 63 1008.9
20260904155401 89 233 0.0 4.0 0.00 0.00 0.00 63 1008.9
20260904154420 89 256 2.0 4.0 0.00 0.00 0.00 63 1009.0
20260904154358 89 263 0.0 4.0 0.00 0.00 0.00 63 1009.0
20260904152351 89 246 3.0 4.0 0.00 0.00 0.00 63 1009.0
20260904151347 89 83 0.0 4.0 0.00 0.00 0.00 64 1008.9
20260904150902 89 261 0.0 3.0 0.00 0.00 0.00 64 1009.1
20260904145343 89 208 0.0 5.0 0.00 0.00 0.00 64 1009.1
20260904144349 89 294 0.0 4.0 0.00 0.00 0.00 64 1009.0
20260904143348 90 229 0.0 3.0 0.00 0.00 0.00 64 1008.8
20260904142338 90 233 0.0 3.0 0.00 0.00 0.00 64 1008.9
20260904141856 90 171 1.0 3.0 0.00 0.00 0.00 64 1008.7
20260904141339 90 240 0.0 3.0 0.00 0.00 0.00 64 1008.8
20260904135356 90 225 0.0 2.0 0.00 0.00 0.00 64 1008.5
20260904135337 90 256 0.0 2.0 0.00 0.00 0.00 64 1008.5
20260904133329 90 307 0.0 2.0 0.00 0.00 0.00 63 1008.2
20260904132324 90 307 1.0 3.0 0.00 0.00 0.00 63 1008.1
20260904131328 90 315 0.0 4.0 0.00 0.00 0.00 63 1008.0
20260904130316 90 266 2.0 3.0 0.00 0.00 0.00 63 1008.0
20260904125814 90 259 1.0 4.0 0.00 0.00 0.00 63 1007.9
20260904124809 90 241 2.0 5.0 0.00 0.00 0.00 62 1007.9
20260904123304 90 252 4.0 6.0 0.00 0.00 0.00 62 1007.7
20260904122306 90 265 3.0 5.0 0.00 0.00 0.00 60 1007.4
20260904121304 90 293 0.0 4.0 0.00 0.00 0.00 60 1007.1
20260904121250 90 277 2.0 5.0 0.00 0.00 0.00 59 1006.9
20260904115306 90 274 0.0 4.0 0.00 0.00 0.00 59 1006.8
20260904114303 90 280 2.0 4.0 0.00 0.00 0.00 59 1006.8
20260904113304 90 327 2.0 4.0 0.00 0.00 0.00 59 1006.4
20260904112306 90 282 3.0 5.0 0.00 0.00 0.00 58 1006.4
20260904111304 91 296 2.0 5.0 0.00 0.00 0.00 58 1006.2
20260904110304 91 265 3.0 5.0 0.00 0.00 0.00 58 1005.9
20260904105306 91 307 2.0 4.0 0.00 0.00 0.00 58 1005.7
20260904104304 91 326 2.0 8.0 0.00 0.00 0.00 58 1005.8
20260904103303 91 284 3.0 7.0 0.00 0.00 0.00 58 1005.5
20260904102307 91 300 2.0 9.0 0.00 0.00 0.00 57 1005.3
20260904101304 91 276 6.0 10.0 0.00 0.00 0.00 57 1005.2
20260904100304 91 311 5.0 9.0 0.00 0.00 0.00 57 1005.3
20260904095308 91 335 3.0 7.0 0.00 0.00 0.00 57 1005.3
20260904094305 91 332 4.0 9.0 0.00 0.00 0.00 57 1005.1
20260904093304 91 271 2.0 11.0 0.00 0.00 0.00 56 1005.0
20260904092306 91 255 8.0 8.0 0.00 0.00 0.00 56 1004.8
20260904091304 91 277 3.0 8.0 0.00 0.00 0.00 56 1004.8
20260904090304 91 307 3.0 7.0 0.00 0.00 0.00 58 1004.7
20260904090231 91 229 6.0 11.0 0.00 0.00 0.00 58 1004.9
20260904084304 91 305 4.0 11.0 0.00 0.00 0.00 59 1004.9
20260904083304 90 302 2.0 7.0 0.00 0.00 0.00 59 1005.1
20260904082305 90 287 5.0 8.0 0.00 0.00 0.00 60 1005.2
20260904081747 90 258 5.0 9.0 0.00 0.00 0.00 60 1005.3
20260904080709 90 273 2.0 7.0 0.00 0.00 0.00 61 1005.8
20260904080444 90 301 1.0 7.0 0.00 0.00 0.00 61 1005.6
20260904075232 90 245 4.0 6.0 0.00 0.00 0.00 62 1005.9
20260904073304 90 328 2.0 13.0 0.00 0.00 0.00 62 1006.0
20260904072306 90 252 5.0 8.0 0.00 0.00 0.00 62 1006.2
20260904072225 90 246 2.0 8.0 0.00 0.00 0.00 63 1006.2
20260904070304 90 278 1.0 7.0 0.00 0.00 0.00 63 1006.3
20260904065306 89 251 4.0 7.0 0.00 0.00 0.00 63 1006.5
20260904064305 89 294 1.0 8.0 0.00 0.00 0.00 63 1006.8
20260904063304 89 293 3.0 9.0 0.00 0.00 0.00 63 1007.1
20260904062306 89 295 2.0 11.0 0.00 0.00 0.00 63 1007.1
20260904061743 89 295 2.0 9.0 0.00 0.00 0.00 63 1007.3
20260904060306 89 301 3.0 10.0 0.00 0.00 0.00 62 1007.5
20260904055306 89 293 2.0 7.0 0.00 0.00 0.00 63 1007.6
20260904054304 89 293 3.0 8.0 0.00 0.00 0.00 64 1007.8
20260904053304 89 251 2.0 9.0 0.00 0.00 0.00 63 1007.7
20260904052437 89 254 3.0 9.0 0.00 0.00 0.00 64 1007.9
20260904051942 89 286 2.0 7.0 0.00 0.00 0.00 64 1008.0
20260904050936 89 293 4.0 9.0 0.00 0.00 0.00 63 1008.3
20260904045421 89 261 5.0 14.0 0.00 0.00 0.00 63 1008.4
20260904044416 89 350 7.0 13.0 0.00 0.00 0.00 64 1008.5
20260904043413 88 253 3.0 9.0 0.00 0.00 0.00 64 1008.6
20260904042410 88 254 7.0 11.0 0.00 0.00 0.00 64 1008.7
20260904041409 88 274 4.0 8.0 0.00 0.00 0.00 64 1008.8
20260904040405 88 242 5.0 9.0 0.00 0.00 0.00 65 1008.9
20260904035406 88 290 4.0 11.0 0.00 0.00 0.00 64 1008.9
20260904034403 87 269 3.0 8.0 0.00 0.00 0.00 65 1009.2
20260904033400 87 264 3.0 7.0 0.00 0.00 0.00 65 1009.1
20260904032358 87 286 2.0 8.0 0.00 0.00 0.00 66 1009.2
20260904031911 87 325 2.0 10.0 0.00 0.00 0.00 66 1009.1
20260904030344 87 257 4.0 9.0 0.00 0.00 0.00 67 1009.2
20260904025853 86 246 4.0 8.0 0.00 0.00 0.00 66 1009.3
20260904024335 86 278 2.0 9.0 0.00 0.00 0.00 66 1009.3
20260904023330 86 260 5.0 8.0 0.00 0.00 0.00 68 1009.4
20260904022328 86 228 6.0 9.0 0.00 0.00 0.00 68 1009.4
20260904021325 86 338 2.0 7.0 0.00 0.00 0.00 68 1009.3
20260904020319 86 331 1.0 10.0 0.00 0.00 0.00 69 1009.4
20260904015317 86 331 2.0 9.0 0.00 0.00 0.00 69 1009.4
20260904014314 86 283 2.0 8.0 0.00 0.00 0.00 68 1009.4
20260904013309 86 323 2.0 5.0 0.00 0.00 0.00 69 1009.2
20260904012306 85 18 1.0 6.0 0.00 0.00 0.00 69 1009.1
20260904011300 85 266 3.0 7.0 0.00 0.00 0.00 69 1008.9
20260904010258 85 295 2.0 7.0 0.00 0.00 0.00 70 1008.8
20260904005253 85 217 2.0 7.0 0.00 0.00 0.00 69 1008.6
20260904004249 85 351 1.0 8.0 0.00 0.00 0.00 70 1008.5
20260904003248 85 242 5.0 6.0 0.00 0.00 0.00 69 1008.5
20260904002243 85 239 3.0 5.0 0.00 0.00 0.00 69 1008.3
20260904001240 85 239 5.0 7.0 0.00 0.00 0.00 69 1008.2
20260904000242 85 282 1.0 5.0 0.00 0.00 0.00 70 1008.0
20260903235236 85 235 0.0 5.0 0.00 0.00 0.00 69 1007.8
20260903234236 85 277 2.0 6.0 0.00 0.00 0.00 70 1007.8
20260903233318 85 30 0.0 3.0 0.00 0.00 0.00 69 1007.6
20260903232730 85 245 4.0 6.0 0.00 0.00 0.00 70 1007.6